Wind_Speed
12 8 7 3 3 4 4 6 3 2 3 3 2 6 9 5 2 4 7 20 25 20 15 12 10 9 7 6 5 4 4 4 6 7 8 8 8 9 9 9 8 7 7 7 7 6 5 4 3
9 4 1 2 4 3 5 5 4 3 6 9 9 4 7 3 2 10 12 22 20 15 15 12 10 8 7 6 6 7 7 7 8 8 8 9 9 9 9 10 10 10 9 8 8 8 6 5 4
7 2 3 4 4 6 5 4 5 3 7 2 5 7 4 7 7 8 19 22 19 17 15 12 9 8 7 8 8 8 8 8 8 9 9 9 9 9 9 9 9 9 8 8 8 8 7 7 6
3 2 3 4 9 5 5 2 3 8 3 6 5 8 3 3 9 15 24 21 19 17 14 11 9 8 8 8 9 8 8 8 9 9 9 9 9 8 8 8 8 8 8 7 7 8 8 7 7
0 2 3 3 7 4 5 5 5 4 4 4 3 5 4 1 13 28 28 22 18 15 13 11 9 9 8 8 8 8 8 8 8 8 8 8 8 8 9 8 8 8 8 8 8 8 8 8 8
1 2 2 6 8 4 5 6 5 4 4 5 7 6 4 10 21 22 25 21 16 15 13 11 9 8 7 7 8 8 8 8 9 9 9 9 9 10 10 10 10 9 9 10 10 10 9 8 8
5 3 5 7 11 4 7 6 7 7 8 5 11 6 2 5 16 21 23 20 17 14 13 12 10 9 8 8 9 10 9 10 11 9 8 7 8 9 11 12 11 11 10 10 11 11 11 10 9
3 3 4 5 12 12 6 6 9 7 3 7 6 8 7 15 22 26 25 21 17 14 12 11 10 9 9 9 10 10 9 9 8 7 6 7 7 8 8 9 10 9 11 10 10 11 10 9 8
1 1 4 7 8 5 5 6 1 3 7 3 3 7 8 32 32 30 26 22 19 14 11 10 9 9 7 7 7 7 7 7 7 5 5 4 5 5 7 7 8 8 9 9 10 9 9 9 7
3 3 7 5 4 5 2 4 10 6 5 3 4 8 28 34 31 25 23 22 20 17 14 11 9 8 7 6 6 5 4 4 5 4 3 3 4 4 5 6 7 8 9 9 8 9 8 8 8
3 4 5 4 4 5 3 5 1 12 3 7 10 15 20 25 20 20 22 24 22 18 14 13 11 9 8 6 5 5 3 2 2 3 2 3 3 3 5 6 7 8 9 10 9 9 10 9 9
3 7 6 4 5 6 4 3 3 1 6 8 15 19 20 17 18 19 21 22 21 19 16 13 12 10 9 7 6 5 3 2 1 2 3 3 4 4 5 7 8 10 10 10 10 11 11 9 8
4 4 9 7 10 6 7 6 6 2 2 13 13 14 15 13 14 19 25 23 21 20 18 15 13 11 9 8 7 5 4 3 1 2 2 3 4 5 6 7 8 10 10 11 11 11 12 11 10
3 8 9 6 7 7 4 3 3 0 8 14 15 11 11 11 17 19 24 25 25 22 20 17 14 11 10 8 7 6 4 3 2 1 2 2 4 4 5 6 8 9 10 10 11 12 12 12 11
4 4 8 10 6 5 1 2 4 6 8 15 10 9 8 9 18 20 26 27 28 24 20 18 15 13 11 9 7 5 3 3 4 2 1 2 3 4 5 6 7 9 10 10 10 11 12 12 12
6 5 3 5 8 6 3 4 2 6 13 10 9 8 9 9 17 23 26 28 29 24 22 18 16 14 11 9 6 5 4 3 4 3 3 3 4 5 6 7 7 9 10 11 11 14 14 15 15
1 4 5 4 8 3 3 3 4 5 8 10 9 8 9 8 13 23 24 30 31 25 22 19 17 15 12 9 7 5 4 5 5 6 5 5 5 7 7 7 8 8 10 11 12 13 15 18 17
8 6 5 8 5 3 3 3 4 7 8 10 8 8 8 10 12 22 24 28 28 27 23 19 18 15 12 9 7 6 6 6 7 7 6 7 7 8 9 8 9 9 10 11 12 14 14 14 16
2 5 5 4 4 4 6 3 7 7 5 8 8 9 9 9 9 21 25 22 24 27 25 23 20 16 14 12 8 8 8 7 8 8 8 8 8 9 9 9 9 9 10 11 13 14 15 14 18
3 4 5 0 3 3 5 5 4 6 5 7 10 9 9 6 6 11 20 20 21 25 25 25 21 17 15 11 9 6 5 6 6 7 7 8 9 8 8 8 9 10 10 10 10 11 12 9 14
2 4 4 5 4 3 6 6 4 5 2 5 7 6 5 10 10 8 14 21 20 21 24 24 20 17 14 11 10 8 7 7 8 6 6 7 8 8 7 8 9 8 9 9 9 9 8 8 10
3 8 5 3 5 4 3 4 5 5 9 6 9 9 9 8 5 5 12 17 18 17 17 20 19 16 14 12 10 10 9 7 5 6 5 5 5 6 7 6 6 7 8 8 8 8 8 9 10
6 7 8 7 4 4 2 3 7 4 7 9 12 8 8 9 9 9 12 16 13 13 16 16 16 14 13 11 10 10 10 8 6 6 6 6 6 6 5 5 5 5 6 6 7 7 8 9 10
3 2 4 4 4 1 4 5 5 5 11 4 4 8 7 6 8 8 14 12 12 11 14 15 15 13 11 11 11 9 9 9 9 8 7 6 5 4 4 4 4 6 6 6 7 7 8 9 10
3 3 2 1 1 5 3 4 7 1 2 3 5 9 9 7 8 8 8 11 12 14 15 14 13 11 9 8 9 10 10 8 7 6 5 4 4 2 1 4 5 5 7 7 8 8 8 9 10
3 5 5 5 5 3 2 5 3 3 5 4 4 8 8 7 6 6 9 15 15 14 12 11 11 12 10 9 8 7 7 7 6 5 5 5 4 3 0 2 4 6 7 8 9 10 10 10 10
6 5 4 7 3 4 2 4 4 3 6 7 8 9 7 7 7 8 11 15 14 13 12 11 10 11 9 8 8 8 7 7 7 7 6 5 3 1 1 3 4 6 6 7 9 10 10 11 11
6 4 3 3 4 2 4 1 4 0 3 4 5 6 5 5 6 6 8 11 12 12 11 10 10 11 10 10 10 10 9 9 9 8 7 5 3 1 1 3 5 6 8 9 11 11 12 12 11
5 2 5 4 4 5 4 4 5 2 5 6 6 7 7 7 7 7 10 14 14 13 13 14 13 12 13 11 11 12 10 9 8 6 5 2 1 1 3 5 7 9 10 12 13 13 13 14 13
3 2 4 4 0 1 3 3 3 2 1 3 2 4 4 5 7 6 11 13 15 16 16 16 15 14 13 12 12 10 9 8 7 5 3 2 2 1 3 5 8 9 11 12 14 16 16 17 17
Wind_Direction
308 300 308 11 53 65 266 261 266 168 78 5 9 114 121 43 99 168 143 182 147 145 153 142 133 129 123 118 112 100 87 73 64 62 57 51 49 45 40 39 36 34 33 34 31 22 9 350 340
312 331 50 86 108 123 264 254 218 189 143 142 88 91 45 84 68 122 118 149 154 152 147 143 138 133 124 115 104 93 83 77 72 66 62 58 57 53 47 44 44 46 46 39 28 24 9 357 346
306 314 103 145 151 188 218 228 171 113 162 143 101 47 89 121 123 139 146 156 151 150 149 144 138 130 121 110 103 99 90 84 78 74 67 67 65 57 52 46 43 42 39 33 27 21 17 11 5
341 45 23 140 212 233 204 219 175 137 150 64 116 71 46 309 151 145 155 150 141 141 148 148 141 131 121 113 107 100 95 86 82 78 73 68 67 62 53 46 39 34 31 24 17 8 2 354 349
61 58 151 189 239 232 222 191 174 148 141 113 125 150 100 74 134 143 157 154 149 146 152 145 140 130 124 118 109 101 93 85 77 74 73 69 65 56 47 39 32 27 22 14 7 357 350 344 341
41 109 144 187 229 178 244 186 167 171 140 161 84 100 188 176 154 152 160 157 154 157 152 146 137 131 126 116 106 97 89 79 75 75 76 67 67 53 40 34 35 31 29 23 17 9 2 357 359
142 126 203 187 219 182 213 156 165 189 140 211 140 100 134 201 159 155 161 156 147 149 150 143 136 125 114 108 103 93 87 85 82 76 65 49 45 43 39 37 40 35 30 28 21 14 13 6 5
139 126 207 215 209 238 201 175 171 168 160 120 152 159 176 189 148 147 150 151 150 150 151 150 146 131 112 108 103 96 89 85 81 65 66 48 42 44 35 33 33 26 19 15 15 6 3 6 4
82 131 213 200 182 235 191 164 44 88 115 82 4 149 171 159 148 143 142 143 148 154 162 164 163 149 121 112 113 102 95 82 77 75 66 67 43 33 30 26 17 15 10 19 13 7 2 358 2
169 166 211 221 224 219 249 185 156 121 134 48 57 71 129 148 153 151 156 154 158 164 169 172 166 160 148 134 135 125 103 90 69 56 66 67 41 43 33 19 11 360 356 359 356 349 343 347 357
205 212 234 278 287 349 296 151 235 129 212 197 171 144 143 151 162 162 168 169 172 172 177 178 178 173 169 168 158 136 121 132 71 36 39 37 43 48 31 16 7 2 2 4 4 2 2 357 348
265 222 252 279 341 342 268 173 121 138 191 147 156 153 150 164 173 170 171 175 174 179 180 181 185 181 178 172 169 163 180 170 74 35 29 39 46 39 26 18 13 7 7 11 10 8 6 2 359
251 271 245 281 287 272 283 242 165 135 315 120 132 149 159 166 168 178 185 183 183 184 184 186 187 187 187 185 185 182 189 195 211 16 10 29 41 36 26 16 11 8 9 11 11 9 7 0 357
239 224 262 297 301 290 308 218 110 225 127 124 144 156 163 170 173 180 188 190 193 189 187 186 190 189 191 191 184 186 197 223 219 258 354 11 25 18 14 9 5 6 6 8 7 4 1 360 352
253 249 284 260 269 270 233 227 166 143 143 140 150 157 166 179 182 191 194 193 196 193 188 191 193 192 196 195 192 196 192 220 222 242 273 353 358 359 355 355 357 1 0 359 359 359 356 353 351
158 165 200 268 191 259 128 234 174 163 145 149 156 165 175 191 196 200 201 202 197 192 191 191 195 196 197 195 201 212 216 230 229 251 269 293 331 336 338 336 345 351 351 349 352 353 353 351 347
114 191 193 274 203 205 151 209 177 179 158 163 174 175 182 191 206 206 202 203 194 196 191 193 196 199 200 196 202 218 237 251 252 244 273 280 299 313 316 324 328 332 338 343 345 348 349 347 347
178 186 179 197 207 178 144 262 173 190 171 180 174 182 190 198 206 200 189 190 195 196 195 198 197 198 199 198 209 224 243 243 241 244 272 279 290 303 300 312 317 322 328 335 339 340 344 350 347
75 152 172 188 204 129 195 231 197 187 166 169 188 193 201 201 196 197 191 187 192 196 195 196 193 197 198 199 215 236 244 238 241 243 259 270 281 298 298 306 314 317 324 332 337 337 341 353 355
342 180 209 225 179 126 178 249 217 199 210 189 187 205 204 180 166 182 189 185 188 193 197 196 197 198 202 216 223 234 241 238 235 244 260 263 274 291 298 306 314 319 320 323 330 337 341 339 359
194 182 202 168 130 53 122 318 197 242 250 191 216 209 207 191 185 183 181 183 186 189 194 197 198 200 205 216 224 233 245 254 259 264 278 268 269 276 292 308 310 315 318 319 323 328 332 331 339
242 191 202 158 117 181 146 238 256 235 227 223 221 204 212 202 181 161 174 177 180 183 187 195 196 200 206 216 228 244 250 251 256 273 274 263 277 275 287 303 317 324 323 322 322 321 319 317 322
240 176 195 164 146 103 179 76 246 164 239 244 231 199 213 207 169 171 177 183 184 187 188 187 191 190 198 218 236 243 241 249 255 257 262 262 265 269 256 268 290 312 319 320 324 323 317 317 312
34 56 58 67 94 57 207 132 262 199 209 231 176 193 185 161 174 157 178 174 175 183 182 178 181 192 210 227 236 244 246 243 239 240 246 246 231 221 230 250 281 307 316 321 324 321 314 314 309
104 161 53 136 83 204 343 75 249 234 3 269 232 189 174 166 143 147 149 157 164 171 176 183 194 206 215 223 226 228 233 235 242 238 228 210 187 154 339 323 328 336 340 337 332 330 328 327 318
129 128 184 160 172 199 3 222 243 357 329 344 8 133 114 121 122 141 161 174 180 185 194 198 202 203 209 219 224 226 228 228 214 206 195 184 184 186 217 336 345 349 349 350 346 344 342 336 329
124 209 197 111 25 84 227 287 332 30 25 52 70 100 130 148 165 173 178 188 192 198 201 203 204 208 215 222 222 216 215 206 196 188 182 174 165 155 355 357 2 3 360 353 346 341 337 334 332
189 184 79 9 129 120 283 237 231 350 97 105 109 131 163 188 194 200 197 200 202 204 206 210 217 222 222 221 217 210 206 201 193 187 181 176 172 171 29 20 12 4 355 348 341 336 336 332 330
213 213 59 112 114 153 147 260 218 264 170 158 181 194 200 206 209 205 207 208 205 206 210 213 218 222 220 220 213 209 207 196 188 183 175 167 154 62 22 8 358 351 347 342 335 332 331 328 327
246 137 108 104 71 81 117 277 292 289 171 164 201 232 229 227 224 213 207 202 205 212 212 218 225 226 227 225 218 212 201 194 190 188 185 182 164 32 358 343 339 337 335 334 329 326 326 323 322
Height
808 807 807 806 830 836 839 821 795 795 797 792 788 794 807 812 815 832 820 822 824 826 828 831 832 833 833 833 833 833 832 832 832 832 831 830 829 828 828 826 825 825 824 823 822 821 821 819 819
807 807 807 815 839 848 839 810 799 793 795 794 793 801 808 821 814 817 820 824 824 826 829 831 832 833 833 833 833 833 833 833 832 832 832 831 830 829 828 827 826 825 824 823 822 821 820 819 818
807 807 813 822 840 843 831 799 798 792 791 789 800 804 811 816 816 818 819 823 824 827 829 831 832 833 833 833 833 833 833 833 833 833 832 831 831 830 829 828 826 825 824 823 822 821 819 818 817
807 808 814 828 829 817 806 796 793 794 791 791 798 815 813 813 813 814 820 823 825 828 830 831 832 833 833 833 834 834 833 834 833 833 833 832 831 830 829 827 826 825 824 823 822 821 819 818 817
808 814 826 829 819 806 797 791 792 792 790 794 795 819 818 814 814 815 819 822 825 828 830 831 832 833 833 833 834 834 834 834 833 833 833 832 832 831 829 828 826 825 824 823 822 820 819 817 816
814 816 831 830 815 801 792 786 789 792 791 798 804 816 819 813 815 817 820 822 825 828 831 832 832 833 833 833 834 834 834 834 833 834 833 833 832 831 830 828 827 826 824 823 822 821 819 817 815
814 822 823 818 804 803 792 783 791 792 793 795 797 818 816 814 814 817 820 823 826 829 831 832 833 833 834 833 834 835 835 835 834 834 833 833 832 831 830 829 827 826 825 824 822 821 820 818 816
810 816 815 812 803 796 783 782 778 786 791 789 792 812 816 811 814 817 820 824 826 829 831 832 833 833 834 834 835 835 835 835 835 835 834 833 832 832 830 829 828 827 826 824 822 821 820 818 816
805 820 822 806 803 792 778 782 778 780 788 792 793 795 795 805 812 817 821 824 826 828 830 831 832 833 834 834 835 835 835 835 835 835 834 834 833 831 830 830 829 827 826 823 822 820 819 817 816
809 821 811 796 787 783 775 778 779 785 792 796 797 795 797 805 810 814 818 820 824 827 830 831 832 833 834 834 834 834 834 835 834 834 834 833 832 831 830 830 829 828 826 823 821 820 818 816 815
806 811 798 788 783 782 777 779 776 784 791 788 791 797 800 806 811 813 816 818 821 825 829 831 832 833 833 834 834 834 834 834 834 834 834 833 832 831 830 830 829 828 826 823 821 819 818 816 814
809 799 796 788 786 786 780 774 780 777 777 775 784 787 795 804 807 811 815 818 821 824 828 830 832 832 833 833 833 833 834 834 833 833 833 832 831 831 830 830 829 828 826 824 822 820 818 816 815
806 799 792 789 789 786 782 779 779 780 777 778 787 794 797 803 807 811 814 818 821 823 826 829 831 832 832 832 832 833 833 833 833 833 833 832 831 831 830 830 829 828 827 824 822 820 818 817 815
798 798 796 791 789 786 784 779 775 782 782 785 789 796 799 801 804 810 813 816 819 822 824 827 829 830 831 832 832 833 833 833 833 833 833 833 832 831 830 830 829 828 826 824 822 820 818 817 815
795 803 800 794 790 787 779 783 783 781 784 787 792 797 800 802 805 806 810 813 817 819 822 824 827 829 830 831 832 832 833 833 833 833 833 833 832 831 830 830 829 827 826 824 822 820 819 817 815
802 804 809 789 788 784 783 796 783 784 785 790 793 796 799 801 803 806 809 811 814 817 820 822 824 827 828 830 831 832 832 832 832 832 832 832 832 831 830 830 828 827 826 824 822 820 818 816 814
801 813 807 794 786 783 786 790 784 786 788 791 793 796 797 800 802 803 806 808 812 815 817 820 822 825 827 829 830 831 831 831 831 831 832 831 831 830 830 829 828 827 825 824 822 820 818 815 812
804 802 799 800 790 784 788 787 789 788 788 789 793 796 797 798 798 800 804 807 810 813 815 818 821 824 826 828 829 830 830 830 830 830 830 830 830 829 829 829 828 826 825 824 822 820 818 815 812
790 794 795 789 784 786 792 788 791 789 789 792 794 795 795 796 796 799 803 806 809 812 814 817 820 823 825 827 828 828 828 828 828 829 829 829 829 828 828 828 827 826 825 823 822 820 818 815 812
795 793 797 787 782 786 795 791 788 788 785 786 789 793 792 796 797 799 801 804 806 809 812 815 819 821 824 825 826 826 826 826 826 827 827 827 827 827 826 826 825 824 823 822 821 820 818 816 815
794 794 794 791 787 786 794 798 790 784 784 784 786 786 790 793 795 797 799 801 805 808 810 814 817 820 822 824 824 825 825 825 825 825 825 825 825 825 825 824 823 822 821 820 819 818 817 816 815
794 787 786 790 799 815 790 819 796 791 788 785 785 787 789 792 793 796 798 801 803 807 810 813 815 818 820 822 823 824 824 824 824 823 823 823 823 823 822 822 822 821 820 819 818 817 816 815 814
786 783 785 792 799 803 796 820 798 792 792 789 782 786 787 788 791 794 798 800 804 807 810 812 814 816 818 820 821 821 821 822 822 822 821 821 820 820 820 820 820 819 818 818 817 815 815 814 814
782 784 788 799 807 828 804 808 796 796 778 776 777 783 786 787 790 793 798 801 804 807 809 811 812 814 816 817 818 819 820 819 819 818 818 818 818 818 818 818 818 818 817 816 815 814 813 812 812
786 791 809 813 826 820 818 822 797 779 778 777 775 780 785 788 791 795 798 802 805 806 808 809 810 813 815 816 816 816 816 818 818 818 818 819 820 820 820 820 819 818 817 816 815 813 812 811 810
784 788 817 809 823 822 820 812 785 783 783 782 781 782 788 792 794 797 799 801 803 805 807 809 810 810 812 813 815 816 816 817 817 818 818 818 818 818 817 817 817 817 816 816 815 813 812 810 809
792 802 783 809 833 825 825 792 784 782 787 787 787 788 793 795 796 797 799 800 802 804 806 807 808 809 811 812 813 815 816 816 816 817 817 817 818 818 818 818 817 816 814 812 811 810 809 807 807
787 778 790 804 805 803 823 793 815 785 787 789 791 792 793 794 795 796 798 800 801 803 805 807 808 808 809 810 811 812 813 814 814 815 816 816 817 817 817 816 815 814 813 812 810 809 808 806 804
787 780 784 789 797 800 808 810 797 787 788 790 791 791 792 794 795 795 797 798 800 802 802 803 805 806 807 809 810 811 812 813 814 816 816 817 817 817 817 816 816 814 813 811 810 808 806 804 802
781 776 782 794 787 807 809 821 790 787 787 788 787 789 790 792 793 794 795 797 799 800 801 802 804 805 807 809 810 812 813 814 815 815 816 816 816 816 815 815 814 813 811 808 807 805 803 801 799